DW1458 Foley AL US current weather conditions

sailwx.info

Wind from 288

Air temperature 21.7° C
Dewpoint 21.0° C

Last reported at 2020-Sep-29 04:00 UTC.
Time now 2020-Sep-29 05:00 UTC

Location: N 30°24' W 087°40'.
View on Google Maps.

See reports from other nearby stations

  
Tides and Currents Weather Stations Pressure Air Temp Water Temp Dewpoint Dewpoint Depression Visibility Wind Speed Wind Dir Waves Ship Positions
date/time (UTC)wind fromknots sea level pressurealtimeterstation pressurevisibilityair tempwater tempwave heightnotes
2020-Sep-29 04:00 288 21.7
2020-Sep-29 03:31 283 0 gusting 6 22.2
2020-Sep-29 03:00 297 0 gusting 6 22.2
2020-Sep-29 02:46 322 1 gusting 7 22.2
2020-Sep-29 02:31 302 21.7
2020-Sep-29 02:17 318 21.7
2020-Sep-29 02:00 283 21.7
2020-Sep-29 01:46 274 21.7
2020-Sep-29 01:31 266 21.1
2020-Sep-29 01:01 277 21.7
2020-Sep-29 00:31 283 21.7
2020-Sep-29 00:01 247 21.7
2020-Sep-28 23:45 274 21.7
2020-Sep-28 23:32 256 21.7
2020-Sep-28 23:15 256 21.7
2020-Sep-28 23:01 290 1 gusting 6 22.8
2020-Sep-28 22:45 328 5 gusting 13 25.6
2020-Sep-28 22:31 271 28.3
2020-Sep-28 22:16 271 28.9
2020-Sep-28 22:02 228 29.4
2020-Sep-28 21:45 018 30.0
2020-Sep-28 21:17 328 30.6
2020-Sep-28 21:01 246 30.6
2020-Sep-28 20:46 201 31.1
2020-Sep-28 20:30 218 30.6
2020-Sep-28 20:17 269 30.6
2020-Sep-28 20:00 260 0 gusting 5 30.6
2020-Sep-28 19:31 301 30.6
2020-Sep-28 19:01 178 1 gusting 5 31.1
2020-Sep-28 18:31 167 31.7
2020-Sep-28 18:02 240 31.7
2020-Sep-28 17:45 156 0 gusting 5 31.1
2020-Sep-28 17:31 301 31.7
2020-Sep-28 17:15 127 31.7
2020-Sep-28 17:02 253 31.1
2020-Sep-28 16:46 222 31.1
2020-Sep-28 16:32 056 31.1
2020-Sep-28 16:15 274 31.7
2020-Sep-28 15:46 149 30.6
2020-Sep-28 15:16 264 29.4
2020-Sep-28 15:00 297 30.0
2020-Sep-28 14:46 316 28.9
2020-Sep-28 14:30 285 27.8
2020-Sep-28 14:17 264 27.8
2020-Sep-28 14:00 283 27.8
2020-Sep-28 13:46 047 27.8
2020-Sep-28 13:15 085 25.6
2020-Sep-28 13:01 098 24.4
2020-Sep-28 12:45 098 23.3
2020-Sep-28 12:31 096 23.3
2020-Sep-28 12:15 098 22.2
2020-Sep-28 12:01 098 21.7
2020-Sep-28 11:45 098 21.7
2020-Sep-28 11:31 097 21.7
2020-Sep-28 11:15 097 21.1
2020-Sep-28 11:01 098 21.1
2020-Sep-28 10:45 097 21.1
2020-Sep-28 10:31 098 21.1
2020-Sep-28 10:15 098 21.1
2020-Sep-28 10:01 098 21.1
2020-Sep-28 09:46 097 21.1
2020-Sep-28 09:16 098 21.1
2020-Sep-28 08:46 097 21.1
2020-Sep-28 08:16 098 21.1
2020-Sep-28 07:45 097 21.1
2020-Sep-28 07:15 098 21.7
2020-Sep-28 06:46 098 22.2
2020-Sep-28 06:17 098 22.2
2020-Sep-28 05:45 098 22.2
2020-Sep-28 05:16 097 22.2
2020-Sep-28 05:00 098 22.8
2020-Sep-28 04:46 097 22.8
2020-Sep-28 04:30 098 22.8
2020-Sep-28 04:16 098 22.8
2020-Sep-28 04:00 097 23.3
2020-Sep-28 03:47 098 23.3
2020-Sep-28 03:30 103 23.3
2020-Sep-28 03:16 103 23.3
2020-Sep-28 03:00 102 23.9
2020-Sep-28 02:46 101 23.3
2020-Sep-28 02:30 072 22.8
2020-Sep-28 02:16 072 22.8
2020-Sep-28 02:00 072 22.8
2020-Sep-28 01:47 072 23.3
2020-Sep-28 01:30 072 23.3
2020-Sep-28 01:17 072 23.3
2020-Sep-28 01:00 072 23.9
2020-Sep-28 00:47 072 24.4
2020-Sep-28 00:31 096 24.4
2020-Sep-28 00:01 130 25.0
2020-Sep-27 23:31 119 26.1
2020-Sep-27 23:15 194 26.7
2020-Sep-27 23:01 141 27.2
2020-Sep-27 22:45 188 27.8
2020-Sep-27 22:31 291 28.3
2020-Sep-27 22:15 331 28.9
2020-Sep-27 22:01 258 29.4
2020-Sep-27 21:45 246 30.0
2020-Sep-27 21:31 274 30.6
2020-Sep-27 21:15 304 31.1
2020-Sep-27 21:02 229 31.1
2020-Sep-27 20:45 233 31.1
2020-Sep-27 20:32 235 31.1
2020-Sep-27 20:16 235 31.1
2020-Sep-27 20:01 328 0 gusting 5 30.6
2020-Sep-27 19:45 338 31.1
2020-Sep-27 19:31 110 31.1
2020-Sep-27 19:15 231 31.1
2020-Sep-27 19:01 270 31.7
2020-Sep-27 18:45 235 31.7
2020-Sep-27 18:30 235 31.1
2020-Sep-27 18:15 324 0 gusting 5 31.1
2020-Sep-27 18:01 267 31.7
2020-Sep-27 17:45 146 31.1
2020-Sep-27 17:31 224 30.6
2020-Sep-27 17:15 259 30.6
2020-Sep-27 17:02 305 30.0
2020-Sep-27 16:46 300 29.4
2020-Sep-27 16:31 277 28.9
2020-Sep-27 16:16 336 28.3
2020-Sep-27 16:01 276 28.3
2020-Sep-27 15:45 117 28.3
2020-Sep-27 15:30 297 27.8
2020-Sep-27 15:16 226 27.8
2020-Sep-27 15:01 229 27.8
2020-Sep-27 14:49 270 27.2